Vorticity
8 9 13 15 32 5 21 7 18 17 42 15 15 34 31 46 20 -16 -21 -14 38 76 -14 17 16 9 -15 9 2 9 -19 4 13 5 8 1 5 -2 3 20 -15 4 8 2 6 3 7 11 9 11 10 9 7 7
9 9 10 19 30 6 18 -2 -1 24 10 67 -12 10 33 12 25 37 -9 0 15 20 -7 14 -3 15 10 -6 -4 -9 -3 16 -11 -14 10 -4 11 9 17 22 -25 6 13 13 1 1 0 7 9 11 8 7 7 6
5 6 7 9 17 27 12 7 -9 23 27 39 11 6 41 -54 58 51 27 8 28 19 -1 -5 9 22 -1 5 2 19 -4 -21 -43 10 10 1 13 5 -10 0 9 6 7 12 -0 6 8 6 7 7 4 7 9 10
17 19 22 18 17 23 4 1 13 22 6 16 54 37 27 11 21 22 7 24 10 12 12 3 4 13 33 42 2 -8 30 4 21 0 16 15 22 14 17 9 2 4 6 11 8 11 12 9 7 6 7 6 6 7
20 19 19 25 15 20 14 5 4 20 5 18 39 39 2 -17 -27 2 5 -10 16 17 7 -1 16 -15 1 13 35 28 41 28 35 13 -4 8 1 17 1 -0 1 20 7 -4 10 7 6 3 1 -1 3 9 8 7
11 11 13 22 22 18 19 15 19 16 15 12 27 23 32 13 -23 60 8 21 56 6 8 -16 40 5 -52 -1 7 6 -5 -5 0 5 -8 16 5 13 24 15 11 -19 -5 5 9 9 -1 3 4 7 5 6 6 7
11 11 12 14 22 21 22 15 13 2 -2 36 19 22 23 17 13 9 -4 -8 9 50 17 -36 65 43 25 30 -13 -22 47 4 21 6 7 -8 -23 21 -2 -9 8 6 7 6 18 1 1 1 5 7 9 6 8 9
19 18 13 13 15 22 27 25 9 -4 17 32 25 22 -17 -0 19 23 10 3 9 46 27 -16 -58 25 16 21 40 21 -3 7 22 29 9 6 17 -6 6 14 1 13 15 9 7 8 11 7 -2 3 14 13 12 9
19 26 20 11 14 19 34 23 5 8 -4 24 60 9 23 -42 31 40 17 -7 5 8 52 7 -31 -37 16 19 26 3 -13 40 32 18 19 33 3 2 6 15 22 0 4 2 1 7 14 18 14 14 9 8 8 7
13 19 23 12 14 17 22 19 5 6 8 23 29 25 27 28 -3 32 -14 34 -19 6 -9 25 52 -32 -47 -31 -10 16 13 -11 3 10 2 -10 -6 23 9 1 -6 -5 -5 -1 7 11 7 11 13 6 7 9 9 13
10 15 24 18 12 15 17 29 5 7 6 6 35 11 21 21 -19 38 -11 17 17 29 20 17 37 58 49 -3 -28 -33 -45 -27 -2 5 7 8 14 28 14 -0 -3 1 7 13 11 11 14 9 6 10 10 13 19 25
9 8 11 20 19 13 16 20 11 7 4 -2 19 30 23 15 -21 9 9 9 15 7 9 -26 -26 -23 12 24 25 19 14 14 9 15 13 8 22 14 12 17 17 17 8 5 11 3 7 14 12 15 19 21 14 -0
23 26 24 17 21 15 19 20 12 9 14 15 14 11 25 25 15 9 6 13 9 1 36 21 19 17 18 16 6 13 22 12 7 10 6 12 9 20 20 9 12 18 15 10 11 16 16 23 28 19 11 10 6 18
9 21 35 31 25 24 19 14 16 7 15 15 15 1 22 21 6 28 -3 37 20 -20 19 -4 16 20 11 2 16 26 15 31 23 14 11 16 14 11 14 14 10 11 16 19 24 34 22 8 1 1 2 -1 4 -2
8 15 30 24 42 24 19 13 18 11 12 10 11 3 17 23 10 -5 33 29 3 2 17 -4 -8 4 14 9 3 8 13 12 25 25 27 23 18 15 15 15 22 32 29 17 3 -2 2 2 1 2 1 4 2 -1
6 2 24 25 36 30 16 15 13 6 12 18 3 12 26 8 16 17 38 26 9 10 13 -0 8 -5 -0 11 15 13 14 20 29 24 7 16 16 21 26 23 9 -0 -1 3 6 1 -1 3 6 3 6 -2 4 -0
6 21 8 25 19 20 17 11 12 7 20 11 6 24 14 31 24 19 22 16 2 8 5 18 14 12 18 15 11 14 13 11 14 11 17 11 12 9 3 1 0 1 3 4 2 5 5 5 3 2 -1 -9 3 4
5 5 18 14 14 17 7 12 13 7 21 6 -14 49 10 1 -11 8 33 10 25 12 9 15 11 8 14 16 10 6 14 6 6 11 5 4 3 2 2 1 2 4 8 7 9 7 10 8 -3 -3 5 -1 6 10
55 35 9 8 13 13 23 8 17 1 10 9 -12 20 25 11 1 10 29 15 9 6 -4 5 14 11 10 5 6 6 4 7 8 8 3 3 3 2 1 3 3 10 12 8 10 10 2 4 3 4 1 6 12 13
17 37 38 20 11 16 11 22 3 10 4 23 20 0 11 27 -12 8 1 29 23 23 4 12 2 4 4 14 13 6 -2 -2 6 6 7 1 -2 1 5 8 7 10 13 11 1 -2 -10 6 14 3 10 19 34 28
61 11 70 28 2 16 19 38 -1 12 -14 21 17 2 10 7 24 23 -6 7 16 20 9 11 8 3 -8 -15 8 20 21 10 -6 -3 4 9 9 6 16 20 19 4 -4 -2 1 2 3 25 13 42 42 32 41 32
37 43 47 -2 1 1 40 18 23 -16 -8 17 15 -3 12 16 8 3 19 16 14 17 21 3 1 3 17 13 9 14 13 12 13 10 16 20 23 9 5 2 2 0 0 5 11 16 16 49 30 22 8 18 22 16
25 14 9 -12 -8 20 33 14 1 12 21 26 3 6 11 4 22 15 7 11 15 19 17 11 10 10 9 12 13 9 11 10 11 2 -1 -2 -6 -5 -3 10 19 18 27 30 34 37 33 20 10 5 10 13 15 14
-7 -10 -0 14 25 33 5 26 6 9 6 4 -3 -4 13 7 26 17 6 1 7 12 7 9 15 19 19 18 11 10 8 4 0 -2 1 4 7 19 29 37 36 38 40 31 11 17 28 15 9 16 13 14 17 16
16 26 24 30 14 -33 -6 33 -3 -5 19 13 4 12 22 -3 -5 9 12 31 28 27 14 9 5 2 2 4 3 -1 -1 -5 -1 3 15 28 40 46 48 25 24 24 17 22 15 8 4 10 16 28 13 12 16 17
-0 -8 9 -5 16 31 7 5 15 30 19 17 18 10 17 20 16 12 10 5 3 4 4 1 2 3 4 4 7 14 23 20 30 29 24 28 27 9 4 4 16 10 6 9 -1 14 8 1 17 20 13 12 13 17
-15 -5 7 -14 -22 4 16 26 41 36 31 27 24 15 11 6 4 3 3 3 1 -1 1 8 10 12 13 14 6 11 10 14 22 23 27 6 9 14 12 9 3 4 11 9 18 6 17 21 12 16 13 11 13 14
52 62 59 50 32 27 18 4 7 7 7 7 4 4 5 2 1 4 4 2 7 11 8 4 3 3 13 16 11 16 18 17 18 14 13 15 6 -2 -1 17 18 12 7 4 7 11 25 25 14 8 15 16 15 15
5 4 -0 4 2 -0 0 3 5 7 3 3 2 2 3 3 1 -0 5 -4 3 14 12 9 20 16 8 12 9 6 12 22 15 3 8 11 -2 5 0 14 21 22 18 15 15 12 13 17 13 8 10 10 8 7
2 2 4 4 -2 -1 5 8 5 3 2 3 4 4 4 5 7 8 7 16 14 10 13 16 11 14 17 21 28 1 8 16 9 7 10 8 8 6 21 16 21 19 18 18 15 11 11 10 6 4 12 0 0 9
2 -1 -4 1 8 5 1 -4 -4 2 1 3 4 6 8 2 5 14 16 15 16 14 11 12 11 10 9 5 9 19 10 14 18 8 10 6 2 8 12 18 22 10 3 -2 1 8 11 14 15 15 18 12 10 12
3 3 3 3 -0 -3 -5 -7 2 8 8 17 23 14 22 27 17 10 10 -1 10 13 8 6 5 4 7 4 7 14 10 12 19 15 16 3 8 4 9 12 14 11 9 9 15 22 21 19 15 16 17 15 18 22
13 11 10 15 16 17 18 19 19 22 27 20 13 7 5 5 7 12 16 15 17 13 3 5 6 4 4 7 7 8 15 14 23 15 9 4 9 6 15 12 13 13 14 16 11 9 8 9 11 14 13 12 8 11
Height
5364 5367 5370 5374 5378 5385 5391 5397 5403 5410 5415 5423 5435 5448 5455 5472 5483 5493 5509 5523 5537 5552 5564 5579 5594 5604 5616 5627 5637 5645 5651 5661 5670 5677 5683 5688 5693 5699 5704 5710 5716 5720 5721 5725 5729 5730 5734 5735 5735 5739 5739 5739 5740 5741
5356 5359 5363 5366 5370 5377 5384 5390 5396 5402 5408 5416 5425 5438 5451 5465 5476 5488 5502 5517 5530 5546 5557 5569 5584 5599 5610 5619 5628 5636 5647 5655 5661 5669 5676 5680 5687 5691 5696 5701 5707 5709 5715 5720 5722 5725 5726 5728 5727 5730 5731 5732 5732 5733
5347 5351 5355 5359 5363 5369 5377 5384 5390 5395 5403 5410 5418 5430 5444 5461 5470 5483 5501 5515 5520 5538 5553 5565 5578 5593 5603 5610 5617 5627 5633 5644 5653 5663 5666 5671 5678 5684 5688 5694 5697 5703 5705 5709 5713 5716 5717 5719 5719 5720 5720 5722 5722 5721
5338 5341 5345 5349 5355 5361 5369 5377 5385 5392 5400 5408 5415 5426 5434 5453 5466 5478 5494 5508 5516 5530 5547 5560 5576 5583 5593 5603 5609 5617 5627 5636 5643 5648 5654 5661 5667 5674 5678 5684 5688 5692 5698 5702 5705 5707 5706 5709 5710 5711 5711 5713 5713 5713
5329 5332 5336 5340 5347 5354 5361 5370 5380 5388 5394 5399 5409 5418 5427 5446 5461 5473 5485 5499 5512 5525 5541 5557 5565 5573 5583 5594 5602 5611 5615 5627 5631 5638 5642 5648 5654 5664 5666 5672 5679 5683 5689 5692 5696 5696 5696 5697 5699 5700 5701 5700 5700 5702
5322 5326 5330 5334 5340 5347 5355 5364 5373 5381 5387 5394 5404 5411 5423 5437 5453 5467 5483 5494 5502 5516 5533 5544 5554 5565 5574 5587 5595 5601 5610 5616 5620 5623 5630 5637 5645 5654 5659 5667 5672 5675 5678 5680 5684 5687 5687 5688 5689 5690 5690 5689 5688 5689
5316 5320 5324 5329 5334 5342 5349 5358 5367 5376 5385 5392 5399 5410 5420 5436 5446 5458 5470 5483 5497 5513 5525 5541 5546 5556 5567 5577 5586 5590 5600 5604 5607 5611 5619 5629 5637 5643 5652 5660 5663 5666 5668 5670 5674 5676 5677 5678 5678 5679 5679 5678 5676 5676
5308 5312 5318 5323 5328 5335 5342 5352 5363 5372 5382 5388 5396 5406 5417 5431 5443 5457 5472 5485 5496 5501 5513 5525 5534 5548 5557 5568 5575 5583 5592 5595 5598 5604 5611 5618 5627 5634 5644 5652 5653 5656 5660 5662 5664 5666 5666 5666 5666 5666 5667 5666 5665 5664
5302 5305 5310 5317 5323 5330 5337 5347 5358 5369 5377 5384 5393 5407 5414 5429 5443 5460 5469 5476 5484 5496 5503 5515 5528 5541 5551 5559 5569 5576 5581 5585 5592 5598 5606 5613 5620 5630 5640 5641 5644 5647 5648 5651 5653 5655 5655 5655 5655 5654 5654 5653 5652 5650
5297 5301 5305 5312 5318 5325 5333 5343 5353 5364 5374 5382 5391 5402 5415 5433 5443 5454 5463 5466 5476 5483 5496 5508 5524 5538 5548 5554 5559 5567 5573 5578 5583 5591 5596 5606 5617 5624 5628 5632 5636 5636 5640 5642 5642 5642 5642 5642 5641 5640 5638 5637 5635 5634
5293 5297 5301 5307 5314 5321 5328 5338 5348 5358 5368 5380 5390 5403 5414 5428 5436 5444 5451 5459 5466 5477 5491 5504 5518 5532 5543 5549 5554 5561 5562 5571 5578 5585 5592 5598 5609 5617 5619 5624 5624 5626 5630 5629 5629 5630 5629 5628 5627 5626 5625 5623 5622 5621
5288 5291 5295 5301 5308 5315 5324 5333 5344 5356 5370 5382 5392 5402 5410 5422 5429 5434 5439 5448 5458 5467 5484 5503 5514 5524 5533 5541 5546 5554 5560 5568 5570 5582 5585 5590 5606 5606 5609 5611 5615 5617 5617 5617 5617 5617 5617 5615 5615 5614 5613 5612 5610 5610
5281 5284 5288 5293 5300 5310 5319 5329 5342 5353 5365 5377 5387 5395 5402 5409 5415 5422 5429 5439 5452 5470 5488 5501 5512 5519 5525 5532 5539 5546 5552 5558 5566 5571 5575 5588 5590 5594 5595 5599 5602 5605 5606 5605 5604 5605 5605 5605 5603 5603 5603 5602 5600 5597
5278 5279 5281 5287 5294 5304 5315 5326 5339 5352 5364 5373 5381 5389 5394 5401 5410 5423 5436 5451 5467 5480 5490 5499 5505 5511 5519 5525 5530 5537 5545 5553 5556 5563 5571 5576 5577 5581 5584 5586 5590 5591 5593 5593 5593 5593 5594 5595 5594 5593 5592 5589 5586 5583
5277 5279 5281 5285 5291 5301 5313 5324 5338 5351 5361 5370 5377 5383 5394 5402 5415 5427 5436 5448 5462 5474 5483 5488 5497 5506 5513 5516 5523 5531 5538 5542 5548 5556 5562 5565 5566 5569 5572 5574 5578 5581 5581 5581 5583 5585 5586 5586 5584 5581 5578 5575 5573 5569
5276 5280 5283 5286 5292 5302 5313 5326 5337 5348 5358 5366 5374 5386 5394 5405 5418 5428 5436 5446 5458 5467 5474 5485 5494 5500 5505 5512 5520 5526 5532 5538 5545 5548 5551 5551 5557 5561 5563 5566 5570 5571 5570 5571 5576 5576 5576 5574 5571 5569 5566 5563 5560 5555
5275 5282 5287 5292 5297 5306 5315 5324 5335 5346 5356 5366 5377 5386 5396 5407 5418 5427 5437 5447 5455 5463 5472 5481 5487 5494 5503 5510 5517 5522 5528 5534 5538 5539 5543 5547 5551 5554 5556 5560 5563 5561 5562 5564 5565 5564 5562 5561 5559 5557 5554 5549 5545 5538
5271 5279 5286 5293 5300 5307 5315 5324 5336 5345 5355 5366 5377 5385 5396 5408 5416 5425 5432 5440 5451 5459 5468 5476 5484 5493 5500 5507 5514 5520 5525 5528 5531 5536 5539 5542 5545 5547 5549 5551 5551 5551 5552 5553 5553 5553 5551 5549 5546 5543 5538 5532 5525 5519
5267 5272 5280 5290 5299 5305 5313 5324 5335 5349 5360 5369 5378 5385 5396 5406 5414 5424 5432 5437 5445 5456 5465 5473 5481 5490 5497 5504 5510 5515 5518 5522 5526 5530 5532 5535 5537 5539 5541 5542 5544 5544 5544 5544 5543 5541 5538 5535 5531 5525 5519 5514 5508 5502
5264 5268 5274 5288 5299 5310 5317 5326 5339 5352 5358 5367 5378 5388 5398 5408 5415 5423 5430 5439 5446 5453 5462 5470 5479 5487 5492 5498 5502 5507 5512 5516 5520 5523 5526 5528 5530 5531 5532 5533 5533 5533 5532 5531 5529 5526 5523 5519 5512 5506 5501 5494 5489 5487
5256 5265 5276 5291 5303 5313 5320 5329 5340 5348 5356 5368 5376 5386 5398 5408 5417 5424 5430 5438 5444 5451 5459 5468 5476 5481 5485 5491 5497 5500 5504 5508 5511 5514 5516 5517 5519 5520 5521 5521 5520 5519 5518 5516 5512 5507 5503 5499 5492 5486 5482 5480 5476 5475
5261 5273 5286 5299 5309 5316 5325 5333 5342 5353 5363 5371 5379 5387 5400 5409 5416 5422 5430 5436 5442 5450 5457 5464 5470 5475 5480 5485 5490 5493 5496 5499 5502 5504 5505 5506 5508 5509 5509 5508 5506 5504 5500 5496 5490 5486 5482 5479 5476 5475 5474 5471 5469 5469
5280 5290 5299 5307 5313 5319 5328 5337 5346 5355 5363 5372 5381 5392 5402 5409 5415 5422 5429 5436 5442 5447 5453 5458 5464 5470 5474 5478 5482 5485 5487 5489 5491 5493 5495 5496 5497 5496 5493 5489 5486 5482 5477 5472 5468 5466 5466 5466 5467 5466 5466 5464 5463 5463
5298 5302 5306 5312 5318 5325 5333 5343 5351 5359 5362 5375 5384 5392 5400 5407 5413 5421 5428 5434 5439 5445 5450 5455 5459 5463 5467 5470 5473 5476 5478 5480 5483 5484 5484 5482 5480 5477 5472 5469 5465 5461 5458 5456 5455 5456 5458 5460 5459 5459 5457 5456 5456 5456
5309 5314 5317 5321 5326 5333 5338 5347 5352 5361 5370 5379 5387 5394 5400 5408 5414 5419 5425 5431 5436 5440 5445 5450 5456 5460 5464 5467 5469 5471 5472 5471 5469 5467 5464 5462 5459 5456 5455 5454 5453 5452 5451 5450 5451 5452 5453 5451 5450 5449 5449 5449 5448 5448
5315 5320 5325 5328 5334 5339 5344 5351 5356 5363 5373 5381 5388 5394 5399 5407 5412 5417 5424 5430 5436 5441 5446 5449 5452 5455 5456 5458 5459 5459 5457 5455 5453 5451 5450 5450 5451 5451 5450 5449 5448 5448 5447 5447 5447 5446 5445 5444 5443 5442 5442 5442 5442 5441
5318 5322 5329 5335 5342 5347 5351 5357 5366 5373 5378 5384 5389 5395 5400 5405 5414 5421 5426 5430 5434 5437 5439 5441 5443 5445 5446 5446 5445 5445 5445 5444 5444 5444 5444 5444 5445 5445 5446 5445 5444 5443 5442 5441 5440 5439 5438 5437 5437 5436 5436 5436 5435 5434
5325 5330 5338 5344 5349 5355 5361 5365 5369 5374 5380 5386 5393 5399 5406 5412 5417 5421 5424 5427 5429 5430 5432 5433 5433 5435 5436 5437 5437 5438 5437 5437 5437 5439 5439 5439 5440 5441 5440 5439 5438 5436 5434 5434 5434 5432 5431 5431 5431 5430 5430 5430 5429 5428
5333 5337 5342 5347 5352 5357 5363 5370 5375 5380 5385 5390 5396 5400 5405 5409 5413 5417 5420 5423 5426 5428 5429 5430 5431 5431 5431 5431 5432 5432 5432 5432 5432 5432 5432 5433 5434 5435 5434 5432 5429 5428 5428 5428 5427 5426 5426 5425 5425 5424 5424 5423 5422 5422
5336 5341 5346 5351 5356 5362 5367 5372 5377 5381 5386 5390 5395 5399 5403 5407 5410 5412 5414 5416 5419 5421 5422 5423 5423 5423 5424 5424 5425 5426 5425 5424 5424 5425 5426 5428 5428 5428 5426 5424 5422 5421 5421 5421 5421 5421 5420 5419 5419 5418 5418 5417 5417 5416
5337 5341 5346 5351 5356 5361 5366 5370 5374 5378 5381 5385 5389 5393 5397 5401 5403 5406 5408 5410 5412 5414 5415 5415 5415 5416 5417 5417 5416 5416 5416 5417 5418 5419 5420 5421 5421 5421 5419 5418 5417 5416 5416 5416 5415 5414 5413 5412 5411 5410 5410 5409 5408 5408
5337 5341 5346 5350 5355 5359 5362 5366 5369 5373 5376 5380 5383 5386 5390 5393 5397 5400 5402 5404 5406 5407 5408 5409 5409 5409 5410 5410 5410 5410 5411 5412 5412 5413 5413 5414 5414 5414 5413 5411 5410 5410 5409 5408 5407 5406 5405 5404 5403 5402 5401 5400 5400 5399
5334 5339 5344 5348 5352 5356 5359 5363 5366 5369 5373 5376 5380 5383 5386 5389 5391 5394 5395 5396 5398 5400 5402 5402 5402 5403 5403 5403 5403 5403 5403 5403 5403 5404 5405 5406 5406 5407 5406 5405 5404 5403 5402 5401 5400 5399 5398 5396 5395 5394 5393 5392 5392 5391